User: anonymous   Login
Location: Holiday Acres Laynes 2 Mobile Home Park
(26.7249°N, 81.8671°W)
Time: 15:16:19
(UTC+00:00)
Language:

H-2A R/B - Orbit

View from above orbital plane
View from above orbital plane
View from above satellite
View from above satellite

Ground track
Ground track

The orbit data is extracted from the following two-line orbital elements,

1 28932U 06002B   21058.79748687  .00000617  00000-0  62352-4 0  9990
2 28932  98.3323  69.4215 0087857 205.5338 327.7719 14.92455275819224
Epoch (UTC): 27 February 2021 19:08:22
Eccentricity: 0.0087857
inclination: 98.3323°
perigee height: 529 km
apogee height: 651 km
right ascension of ascending node: 69.4215°
argument of perigee: 205.5338°
revolutions per day: 14.92455275
mean anomaly at epoch: 327.7719°
orbit number at epoch: 81922

The dashed part of the orbit path shows where the satellite is in the earth's shadow,  

DLR